Harare Kutsaga, Zimbabwe

5:24 PM CAT on June 23, 2017 (GMT +0200)
Harare Kutsaga

Weather History for FVHA - March, 2013

Change the Weather History Date:

Thursday, March 7, 2013

  Actual Average Record
Temperature  
Mean Temperature 72 °F -  
Max Temperature 81 °F 79 °F 86 °F (2005)
Min Temperature 62 °F 57 °F 54 °F (2015)
Cooling Degree Days 6    
Growing Degree Days 22 (Base 50)    
Moisture  
Dew Point 64 °F    
Average Humidity 78    
Maximum Humidity 100    
Minimum Humidity 47    
Precipitation  
Precipitation 0.00 in 0.11 in - ()
Sea Level Pressure  
Sea Level Pressure 30.13 in    
Wind  
Wind Speed 6 mph ()    
Max Wind Speed 13 mph    
Max Gust Speed -    
Visibility 9.0 miles    
Events Rain , Thunderstorm    
Averages and records for this station are not official NWS values.
T = Trace of Precipitation, MM = Missing Value Source: Averaged Metar Reports

Daily Weather History Graph

Daily Weather History Graph

Search for Another Location

Airport or City:

Trip Planner

Search our weather history database for the weather conditions in past years. The results will help you decide how hot, cold, wet, or windy it might be!

Date:

Astronomy

Mar. 07, 2013 Rise Set
Actual Time 5:56 AM CAT 6:16 PM CAT
Civil Twilight 5:34 AM CAT 6:38 PM CAT
Nautical Twilight 5:08 AM CAT 7:03 PM CAT
Astronomical Twilight 4:43 AM CAT 7:29 PM CAT
Moon 1:29 AM CAT (3/7) 2:46 PM CAT (3/7)
Length of Visible Light 13h 03m
Length of Day
12h 20m
Waning Crescent, 23% of the Moon is Illuminated
Mar 7
Waning Crescent
Mar 11
New
Mar 19
First Quarter
Mar 27
Full
Apr 3
Last Quarter

Hourly Weather History & Observations

Time (CAT) Temp. Heat Index Dew Point Humidity Pressure Visibility Wind Dir Wind Speed Gust Speed Precip Events Conditions
12:00 AM 62.6 °F - 62.6 °F 100% 30.15 in - East 5.8 mph - N/A   Clear
2:00 AM 65 °F - 64 °F 93%  in 19 mi NNE 10.4 mph - -  
2:00 AM 66.2 °F - 64.4 °F 94% 30.12 in - NNE 10.4 mph - N/A   Clear
6:00 AM 64.4 °F - 62.6 °F 94% 30.15 in 6.2 mi NE 6.9 mph - N/A   Partly Cloudy
7:00 AM 66.2 °F - 64.4 °F 94% 30.18 in 6.2 mi NE 12.7 mph - N/A   Partly Cloudy
8:00 AM 68 °F - 64 °F 85%  in 19 mi NE 11.5 mph - -   Scattered Clouds
8:00 AM 68.0 °F - 64.4 °F 88% 30.18 in 6.2 mi NE 11.5 mph - N/A   Partly Cloudy
9:00 AM 73.4 °F - 64.4 °F 73% 30.21 in 6.2 mi NE 9.2 mph - N/A   Partly Cloudy
10:00 AM 75.2 °F - 64.4 °F 69% 30.21 in 6.2 mi NE 6.9 mph - N/A   Partly Cloudy
11:00 AM 78.8 °F - 64.4 °F 61% 30.18 in 6.2 mi Variable 4.6 mph - N/A   Mostly Cloudy
12:00 PM 80.6 °F 81.8 °F 62.6 °F 54% 30.15 in 6.2 mi NW 4.6 mph - N/A   Mostly Cloudy
1:00 PM 78.8 °F - 62.6 °F 57% 30.12 in 6.2 mi Variable 2.3 mph - N/A   Mostly Cloudy
2:00 PM 79 °F - 62 °F 47%  in 19 mi South 1.2 mph - -  
2:00 PM 78.8 °F - 62.6 °F 57% 30.09 in 6.2 mi Variable 1.2 mph - N/A   Mostly Cloudy
3:00 PM 77.0 °F - 64.4 °F 65% 30.06 in 6.2 mi East 9.2 mph - N/A   Mostly Cloudy
4:00 PM 75.2 °F - 64.4 °F 69% 30.06 in 6.2 mi ENE 6.9 mph - N/A Rain , Thunderstorm Light Thunderstorms and Rain
5:00 PM 68.0 °F - 62.6 °F 83% 30.06 in 6.2 mi NNW 8.1 mph - N/A   Mostly Cloudy
7:00 PM 66.2 °F - 62.6 °F 88% 30.06 in 6.2 mi East 2.3 mph - N/A   Mostly Cloudy
8:00 PM 67 °F - 64 °F 88%  in 19 mi North 4.6 mph - -   Scattered Clouds
8:00 PM 68.0 °F - 64.4 °F 88% 30.09 in 6.2 mi North 4.6 mph - N/A   Mostly Cloudy
9:00 PM 68.0 °F - 64.4 °F 88% 30.12 in - ENE 5.8 mph - N/A   Clear
10:00 PM 69.8 °F - 64.4 °F 83% 30.15 in - NNE 6.9 mph - N/A   Clear
11:00 PM 68.0 °F - 62.6 °F 83% 30.15 in - ENE 6.9 mph - N/A   Clear